[TLELIST] Archives

 

[list_settings.list_name] Current TLEs

November 9th 2021 PDT

HST 1 20580U 90037B 21313.03236716 .00001100 00000-0 55357-4 0 9993 2 20580 28.4691 188.3349 0002670 177.1257 318.3017 15.09831509533137 ISS (ZARYA) 1 25544U 98067A 21313.40822360 -.00008551 00000-0 -14735-3 0 9999 2 25544 51.6425 344.6515 0003007 193.0316 237.6143 15.48971861311108 CXO 1 25867U 99040B 21316.19927361 .00000744 00000-0 00000+0 0 9995 2 25867 51.3783 248.5932 8540130 227.9001 359.9726 0.37808676 22136 ____________________________________________________________________ These 2-Line ...Continue Reading

[list_settings.list_name] Current TLEs

November 8th 2021 PDT

HST 1 20580U 90037B 21311.11207490 .00001348 00000-0 70336-4 0 9995 2 20580 28.4693 201.0446 0002746 157.2196 319.9729 15.09827697532831 ISS (ZARYA) 1 25544U 98067A 21312.18908720 .00004283 00000-0 85939-4 0 9999 2 25544 51.6454 350.6778 0003292 183.9559 283.9221 15.48971498310916 CXO 1 25867U 99040B 21313.55717321 .00000798 00000-0 00000-0 0 9995 2 25867 51.4401 248.7156 8536410 227.8736 0.2314 0.37810868 10990 ____________________________________________________________________ These 2-Line ...Continue Reading

[list_settings.list_name] Current TLEs

November 7th 2021 PDT

HST 1 20580U 90037B 21311.11207490 .00001348 00000-0 70336-4 0 9995 2 20580 28.4693 201.0446 0002746 157.2196 319.9729 15.09827697532831 ISS (ZARYA) 1 25544U 98067A 21311.34995038 .00007231 00000-0 13942-3 0 9994 2 25544 51.6455 354.8263 0003534 181.2267 284.3142 15.48971263310780 CXO 1 25867U 99040B 21313.55491729 .00000798 00000-0 00000-0 0 9996 2 25867 51.4422 248.7174 8536369 227.8729 359.9245 0.37810657 10980 ____________________________________________________________________ These 2-Line ...Continue Reading

[list_settings.list_name] Current TLEs

November 6th 2021 PDT

HST 1 20580U 90037B 21309.46791446 .00001542 00000-0 82002-4 0 9998 2 20580 28.4694 211.9266 0002790 140.3659 22.4776 15.09823993532325 ISS (ZARYA) 1 25544U 98067A 21310.37987959 .00007678 00000-0 14760-3 0 9993 2 25544 51.6452 359.6242 0003511 177.2278 275.3734 15.48958391310637 CXO 1 25867U 99040B 21310.91345466 .00000824 00000-0 00000+0 0 9998 2 25867 51.5311 248.8572 8531087 227.8486 0.2643 0.37804239 22118 ____________________________________________________________________ These 2-Line ...Continue Reading

[list_settings.list_name] Current TLEs

November 5th 2021 PDT

HST 1 20580U 90037B 21308.91799226 .00001638 00000-0 87817-4 0 9996 2 20580 28.4693 215.5663 0002813 134.7806 273.1088 15.09822911532243 ISS (ZARYA) 1 25544U 98067A 21309.02091038 .00007335 00000-0 14149-3 0 9998 2 25544 51.6449 6.3465 0003554 173.3242 256.3723 15.48934760310429 CXO 1 25867U 99040B 21310.91345466 .00000824 00000-0 00000+0 0 9998 2 25867 51.5311 248.8572 8531087 227.8486 0.2643 0.37804239 22118 ____________________________________________________________________ These 2-Line ...Continue Reading

[list_settings.list_name] Current TLEs

November 4th 2021 PDT

HST 1 20580U 90037B 21308.13550005 .00002172 00000-0 11999-3 0 9991 2 20580 28.4694 220.7454 0002833 126.7271 339.6120 15.09823960532384 ISS (ZARYA) 1 25544U 98067A 21308.14063183 .00007610 00000-0 14654-3 0 9997 2 25544 51.6450 10.7010 0003557 170.4188 27.4849 15.48922200310282 CXO 1 25867U 99040B 21310.91345466 .00000824 00000-0 00000+0 0 9998 2 25867 51.5311 248.8572 8531087 227.8486 0.2643 0.37804239 22118 ____________________________________________________________________ These 2-Line ...Continue Reading

[list_settings.list_name] Current TLEs

November 3rd 2021 PDT

HST 1 20580U 90037B 21306.94166685 .00001961 00000-0 10728-3 0 9999 2 20580 28.4694 228.6468 0002858 114.6985 329.8674 15.09818923531940 ISS (ZARYA) 1 25544U 98067A 21307.01910440 .00007519 00000-0 14497-3 0 9992 2 25544 51.6453 16.2477 0003674 166.4206 253.6219 15.48903836310119 CXO 1 25867U 99040B 21308.26898733 .00000927 00000-0 00000-0 0 9998 2 25867 51.6084 248.9871 8528745 227.8375 0.1805 0.37811346 10969 ____________________________________________________________________ These 2-Line ...Continue Reading

[list_settings.list_name] Current TLEs

November 2nd 2021 PDT

HST 1 20580U 90037B 21305.87738101 .00001449 00000-0 76450-4 0 9994 2 20580 28.4696 235.6909 0002871 103.7497 304.5948 15.09813309531781 ISS (ZARYA) 1 25544U 98067A 21306.38175858 .00007110 00000-0 13759-3 0 9994 2 25544 51.6456 19.3993 0003617 165.3078 298.5239 15.48892190310010 CXO 1 25867U 99040B 21308.26861553 .00000927 00000-0 00000-0 0 9998 2 25867 51.6084 248.9871 8528736 227.8376 0.1304 0.37811700 10968 ____________________________________________________________________ These 2-Line ...Continue Reading

[list_settings.list_name] Current TLEs

November 1st 2021 PDT

HST 1 20580U 90037B 21304.57641190 .00001501 00000-0 79560-4 0 9995 2 20580 28.4698 244.3011 0002865 90.7351 72.4034 15.09810429531586 ISS (ZARYA) 1 25544U 98067A 21305.49174769 .00006352 00000-0 12389-3 0 9990 2 25544 51.6454 23.8015 0003616 161.6486 16.2104 15.48875649309872 CXO 1 25867U 99040B 21308.26861553 .00000927 00000-0 00000+0 0 9997 2 25867 51.6084 248.9871 8528736 227.8376 0.1304 0.37811700 22107 ____________________________________________________________________ These 2-Line ...Continue Reading

[list_settings.list_name] Current TLEs

October 31st 2021 PDT

HST 1 20580U 90037B 21304.15356468 .00001622 00000-0 86867-4 0 9992 2 20580 28.4699 247.0997 0002859 86.6945 293.5808 15.09810139531781 ISS (ZARYA) 1 25544U 98067A 21304.18483689 .00005661 00000-0 11138-3 0 9992 2 25544 51.6454 30.2628 0003777 157.4502 288.3646 15.48855051309670 CXO 1 25867U 99040B 21302.97983705 .00001063 00000-0 00000+0 0 9995 2 25867 51.8141 249.3499 8525668 227.6912 0.2441 0.37808647 22085 ____________________________________________________________________ These 2-Line ...Continue Reading
  • This mailing list is a public mailing list - anyone may join or leave, at any time.
  • This mailing list is announce-only.

International Space Station (ISS) / Hubble Space Telescope (HST) / Chandra X-Ray Observatory Orbital Data via EMAIL

Privacy Policy:

Private list